Location: ????????
(60.4333°N, 46.4710°E)
Time: 19:03:37
(UTC+00:00)

Cosmos 1943 Rocket - Pass Details

Date: 25 November 2020
Orbit: 811 x 844 km, 71.0° (Epoch: 16 January)

Event Time Altitude Azimuth Distance (km) Brightness Sun altitude
Rises 12:52:39 0° 310° (NW) 3,348 5.5 -5.7°
Reaches altitude 10° 12:55:14 10° 319° (NW) 2,417 4.7 -6.0°
Maximum altitude 13:00:25 40° 28° (NNE) 1,207 2.7 -6.5°
Drops below altitude 10° 13:05:38 10° 97° (E) 2,426 4.1 -7.1°
Sets 13:08:13 0° 105° (ESE) 3,362 4.9 -7.4°
